Orbital Elements at Epoch 2459000.5 (2020-May-31.0) TDB
Reference: JPL 11 (heliocentric ecliptic J2000)
Element | Value | Uncertainty (1-sigma) | Units |
e | .04598248543074372 | 6.2496e-08 | |
a | 2.618758344054894 | 2.8794e-08 | au |
q | 2.498341326652751 | 1.5944e-07 | au |
i | 26.70663633513394 | 5.3247e-06 | deg |
node | 247.1785232748662 | 1.3742e-05 | deg |
peri | 298.8362231340639 | 6.833e-05 | deg |
M | 152.4587773356463 | 7.1755e-05 | deg |
tp | 2458344.971625559869 (2018-Aug-14.47162556) | 0.00030529 | TDB |
period | 1547.89523386313 4.24 | 2.553e-05 6.99e-08 | d yr |
n | .2325738797589917 | 3.8359e-09 | deg/d |
Q | 2.739175361457037 | 3.0118e-08 | au |
|
| | Orbit Determination Parameters
Additional Information
|